Regional Weather Roundup
Issued by NWS Mt. Holly, NJ

Home | Current Version | Previous Version | Text Only | Print | Product List | Glossary On
Versions: 1 2 3 4 5 6 7 8 9 10 11 12 13 14 15 16 17 18 19 20 21 22 23 24 25 26 27 28 29 30 31 32 33 34 35 36 37 38 39 40 41 42 43 44 45 46 47 48 49 50
000
ASUS41 KPHI 231411
RWRPHI

REGIONAL WEATHER ROUNDUP
NATIONAL WEATHER SERVICE MOUNT HOLLY NJ
1000 AM EDT SAT MAY 23 2015

NOTE:  "FAIR" INDICATES FEW OR NO CLOUDS BELOW 12,000 FEET WITH NO
SIGNIFICANT WEATHER AND/OR OBSTRUCTIONS TO VISIBILITY.

 * = STATION DOES NOT REPORT PRECIPITATION (E.G. RAIN, SNOW, ETC.)
        OR FOG.

NJZ015>026-231500-
SOUTHERN NEW JERSEY

CITY           SKY/WX    TMP DP  RH WIND       PRES   REMARKS
POMONA         SUNNY     59  28  30 N13       30.43S
RIO GRANDE*    SUNNY     57  34  41 N10       30.45R
MILLVILLE      SUNNY     58  32  37 NW9       30.45R
WRIGHTSTOWN    SUNNY     56  28  34 N9        30.41S
MOUNT HOLLY    SUNNY     56  26  31 NW10      30.44S
TRENTON        SUNNY     55  25  31 N9        30.44R

$$
NJZ001>014-231500-
NORTHERN NEW JERSEY

CITY           SKY/WX    TMP DP  RH WIND       PRES   REMARKS
SUSSEX         SUNNY     52  26  36 NW8       30.44R
ANDOVER*         N/A     51  26  37 VRB7      30.43R
MORRISTOWN     SUNNY     54  25  32 N13       30.44R
NEWARK         MOSUNNY   56  26  31 N10       30.43R
TETERBORO      SUNNY     54  26  34 NW10      30.41R
CALDWELL       SUNNY     52  23  32 VRB7      30.43R
SOMERVILLE     SUNNY     54  23  30 MISG      30.42S
ALLAIRE*       SUNNY     55  28  35 NW13      30.43R
TOMS RIVER*    SUNNY    N/A N/A N/A N12G22    30.43R

$$
PAZ043-044-047-054-055-060>062-066>071-231500-
EASTERN PENNSYLVANIA

CITY           SKY/WX    TMP DP  RH WIND       PRES   REMARKS
PHILADELPHIA   MOSUNNY   57  25  29 N12       30.46R
NORTH PHILA    SUNNY     57  21  24 N9        30.46S
BLUE BELL      SUNNY     55  27  33 N7        30.44S
DOYLESTOWN     SUNNY     53  23  31 N9        30.44S
QUAKERTOWN*    SUNNY     52  25  35 NE7       30.46S
POTTSTOWN      SUNNY     53  25  33 N9        30.47R
LANCASTER      SUNNY     55  29  36 NW8       30.45S
COATESVILLE    SUNNY     54  28  37 NW8       30.46R
READING        SUNNY     54  26  34 N8        30.45S
ALLENTOWN      SUNNY     52  27  38 NW6       30.45S
MOUNT POCONO   SUNNY     46  21  37 NW8       30.40R
HAZLETON       SUNNY     46  27  46 W6        30.45S
WILKES BARRE   SUNNY     50  25  37 NW8       30.44R

$$
DEZALL-MDZ008-012-015-019-020-231500-
DELAWARE AND EASTERN MARYLAND

CITY           SKY/WX    TMP DP  RH WIND       PRES   REMARKS
WILMINGTON     SUNNY     58  30  34 NW8       30.46R
DOVER          SUNNY     59  39  48 N9        30.42R
GEORGETOWN     SUNNY     61  34  36 NE8       30.45R
EASTON         MOSUNNY   61  32  33 N9        30.49R
PATUXENT       MOSUNNY   63  31  30 N12       30.47R
OCEAN CITY     SUNNY     60  42  51 E10       30.45R
WALLOPS ISLAND SUNNY     63  35  35 NE7       30.46R
CAMBRIDGE      SUNNY     63  28  27 N6        30.46R
SALISBURY      SUNNY     62  33  33 N7        30.45R

$$
PAZ001-021-NYZ056-072-MDZ011-DCZ001-231500-
OTHER NEARBY LOCATIONS

CITY           SKY/WX    TMP DP  RH WIND       PRES   REMARKS
HARRISBURG     MOSUNNY   56  28  34 W7        30.45S
STATE COLLEGE  SUNNY     50  27  40 W6        30.46S
WILLIAMSPORT   SUNNY     51  28  41 W5        30.45F
BINGHAMTON     SUNNY     45  26  47 NW7       30.41R
NEW YORK CITY  SUNNY     53  25  33 NW8       30.44R
BALTIMORE      MOSUNNY   61  26  26 N7        30.46R
WASHINGTON DC  MOSUNNY   64  29  26 N6        30.48R

$$



USA.gov is the U.S. government's official web portal to all federal, state and local government web resources and services.